• în România
  • Lista ţărilor
  • Pe 7 zile
  • Temperatura apei
  • Hartă satelitară
  • Meteo pe hartă
  • Widget-uri
  • user-avatar
    Intrare

    Meteo pe oră la Hersonissos

    Astăzi, 21 Mai, Luni

    Timp Temperatura Precipitaţii Vânt Presiune Umiditate
    00:00 +23°C° 0 mm 4 m/s 742 mmHg 62%
    01:00 +24°C° 0 mm 3 m/s 742 mmHg 60%
    02:00 +24°C° 0 mm 3 m/s 742 mmHg 59%
    03:00 +24°C° 0 mm 3 m/s 742 mmHg 57%
    04:00 +24°C° 0 mm 3 m/s 742 mmHg 56%
    05:00 +22°C° 0 mm 3 m/s 741 mmHg 54%
    06:00 +25°C° 0 mm 3 m/s 741 mmHg 49%
    07:00 +26°C° 0 mm 3 m/s 742 mmHg 45%
    08:00 +28°C° 0 mm 3 m/s 742 mmHg 40%
    09:00 +29°C° 0 mm 4 m/s 742 mmHg 39%
    10:00 +29°C° 0 mm 4 m/s 742 mmHg 38%
    11:00 +30°C° 0 mm 5 m/s 742 mmHg 37%
    12:00 +29°C° 0 mm 4 m/s 742 mmHg 39%
    13:00 +29°C° 0 mm 4 m/s 742 mmHg 40%
    14:00 +29°C° 0 mm 4 m/s 742 mmHg 42%
    15:00 +29°C° 0 mm 4 m/s 741 mmHg 45%
    16:00 +28°C° 0 mm 3 m/s 741 mmHg 48%
    17:00 +28°C° 0 mm 2 m/s 741 mmHg 51%
    18:00 +27°C° 0 mm 2 m/s 741 mmHg 56%
    19:00 +26°C° 0 mm 2 m/s 741 mmHg 60%
    20:00 +26°C° 0 mm 2 m/s 741 mmHg 65%
    21:00 +25°C° 0 mm 2 m/s 742 mmHg 66%
    22:00 +25°C° 0 mm 2 m/s 742 mmHg 67%
    23:00 +25°C° 0 mm 3 m/s 742 mmHg 68%

    Mâine, 22 Mai, Marţi

    Timp Temperatura Precipitaţii Vânt Presiune Umiditate
    00:00 +25°C° 0 mm 3 m/s 742 mmHg 66%
    01:00 +25°C° 0 mm 3 m/s 742 mmHg 65%
    02:00 +25°C° 0 mm 3 m/s 742 mmHg 63%
    03:00 +25°C° 0 mm 3 m/s 742 mmHg 63%
    04:00 +25°C° 0 mm 3 m/s 743 mmHg 62%
    05:00 +25°C° 0 mm 4 m/s 743 mmHg 62%
    06:00 +26°C° 0 mm 4 m/s 743 mmHg 58%
    07:00 +27°C° 0 mm 4 m/s 744 mmHg 54%
    08:00 +28°C° 0 mm 4 m/s 744 mmHg 51%
    09:00 +29°C° 0 mm 3 m/s 744 mmHg 47%
    10:00 +30°C° 0 mm 3 m/s 745 mmHg 43%
    11:00 +31°C° 0 mm 3 m/s 745 mmHg 39%
    12:00 +30°C° 0 mm 3 m/s 745 mmHg 43%
    13:00 +30°C° 0 mm 2 m/s 745 mmHg 48%
    14:00 +29°C° 0 mm 2 m/s 745 mmHg 52%
    15:00 +29°C° 0 mm 2 m/s 745 mmHg 55%
    16:00 +28°C° 0 mm 2 m/s 745 mmHg 58%
    17:00 +27°C° 0 mm 2 m/s 745 mmHg 60%
    18:00 +26°C° 0 mm 2 m/s 745 mmHg 65%
    19:00 +25°C° 0 mm 1 m/s 745 mmHg 70%
    20:00 +24°C° 0 mm 1 m/s 745 mmHg 75%
    21:00 +24°C° 0 mm 1 m/s 745 mmHg 76%
    22:00 +24°C° 0 mm 2 m/s 746 mmHg 76%
    23:00 +23°C° 0 mm 2 m/s 746 mmHg 76%

    Poimâine, 23 Mai, Miercuri

    Timp Temperatura Precipitaţii Vânt Presiune Umiditate
    00:00 +23°C° 0 mm 2 m/s 746 mmHg 75%
    01:00 +23°C° 0 mm 2 m/s 746 mmHg 73%
    02:00 +23°C° 0 mm 2 m/s 745 mmHg 72%
    03:00 +22°C° 0 mm 3 m/s 745 mmHg 68%
    04:00 +21°C° 0 mm 3 m/s 745 mmHg 65%
    05:00 +21°C° 0 mm 3 m/s 745 mmHg 61%
    06:00 +24°C° 0 mm 3 m/s 745 mmHg 54%
    07:00 +26°C° 0 mm 3 m/s 746 mmHg 46%
    08:00 +28°C° 0 mm 3 m/s 746 mmHg 38%
    09:00 +29°C° 0 mm 3 m/s 746 mmHg 37%
    10:00 +30°C° 0 mm 3 m/s 746 mmHg 35%
    11:00 +31°C° 0 mm 3 m/s 746 mmHg 33%
    12:00 +31°C° 0 mm 3 m/s 746 mmHg 35%
    13:00 +32°C° 0 mm 4 m/s 746 mmHg 38%
    14:00 +32°C° 0 mm 4 m/s 746 mmHg 40%
    15:00 +30°C° 0 mm 4 m/s 745 mmHg 42%
    16:00 +30°C° 0 mm 4 m/s 745 mmHg 45%
    17:00 +29°C° 0 mm 3 m/s 745 mmHg 47%
    18:00 +28°C° 0 mm 2 m/s 745 mmHg 53%
    19:00 +26°C° 0 mm 2 m/s 745 mmHg 59%
    20:00 +25°C° 0 mm 1 m/s 744 mmHg 64%
    21:00 +25°C° 0 mm 1 m/s 744 mmHg 65%
    22:00 +24°C° 0 mm 1 m/s 744 mmHg 65%
    23:00 +24°C° 0 mm 1 m/s 744 mmHg 65%

    24 Mai, Joi

    Timp Temperatura Precipitaţii Vânt Presiune Umiditate
    00:00 +24°C° 0 mm 1 m/s 744 mmHg 64%
    01:00 +24°C° 0 mm 1 m/s 743 mmHg 63%
    02:00 +24°C° 0 mm 1 m/s 743 mmHg 62%
    03:00 +23°C° 0 mm 1 m/s 743 mmHg 63%
    04:00 +23°C° 0 mm 1 m/s 742 mmHg 63%
    05:00 +23°C° 0 mm 1 m/s 742 mmHg 64%
    06:00 +24°C° 0 mm 1 m/s 742 mmHg 59%
    07:00 +25°C° 0 mm 2 m/s 742 mmHg 54%
    08:00 +27°C° 0 mm 2 m/s 742 mmHg 48%
    09:00 +27°C° 0 mm 2 m/s 742 mmHg 47%
    10:00 +28°C° 0 mm 3 m/s 742 mmHg 46%
    11:00 +29°C° 0 mm 4 m/s 743 mmHg 45%
    12:00 +29°C° 0 mm 5 m/s 742 mmHg 45%
    13:00 +29°C° 0 mm 5 m/s 742 mmHg 45%
    14:00 +29°C° 0 mm 5 m/s 742 mmHg 45%
    15:00 +29°C° 0 mm 5 m/s 741 mmHg 49%
    16:00 +28°C° 0 mm 5 m/s 741 mmHg 53%
    17:00 +28°C° 0 mm 5 m/s 741 mmHg 57%
    18:00 +27°C° 0 mm 5 m/s 741 mmHg 62%
    19:00 +25°C° 0 mm 5 m/s 741 mmHg 68%
    20:00 +23°C° 0 mm 5 m/s 741 mmHg 73%
    21:00 +23°C° 0 mm 5 m/s 741 mmHg 74%
    22:00 +22°C° 0 mm 5 m/s 741 mmHg 76%
    23:00 +21°C° 0 mm 5 m/s 741 mmHg 78%

    25 Mai, Vineri

    Timp Temperatura Precipitaţii Vânt Presiune Umiditate
    00:00 +21°C° 0 mm 5 m/s 740 mmHg 79%
    01:00 +21°C° 0 mm 5 m/s 740 mmHg 80%
    02:00 +20°C° 0 mm 5 m/s 740 mmHg 81%
    03:00 +20°C° 0 mm 5 m/s 740 mmHg 81%
    04:00 +20°C° 0 mm 5 m/s 739 mmHg 81%
    05:00 +19°C° 0 mm 5 m/s 739 mmHg 81%
    06:00 +21°C° 0 mm 5 m/s 739 mmHg 75%
    07:00 +22°C° 0 mm 5 m/s 740 mmHg 70%
    08:00 +23°C° 0 mm 5 m/s 740 mmHg 64%
    09:00 +25°C° 0 mm 5 m/s 740 mmHg 60%
    10:00 +26°C° 0 mm 5 m/s 740 mmHg 56%
    11:00 +27°C° 0 mm 5 m/s 740 mmHg 52%
    12:00 +27°C° 0 mm 6 m/s 740 mmHg 51%
    13:00 +27°C° 0 mm 6 m/s 740 mmHg 50%
    14:00 +28°C° 0 mm 7 m/s 740 mmHg 49%
    15:00 +27°C° 0 mm 7 m/s 740 mmHg 51%
    16:00 +27°C° 0 mm 7 m/s 740 mmHg 53%
    17:00 +26°C° 0 mm 7 m/s 740 mmHg 55%
    18:00 +24°C° 0 mm 6 m/s 740 mmHg 60%
    19:00 +23°C° 0 mm 6 m/s 740 mmHg 65%
    20:00 +22°C° 0 mm 6 m/s 740 mmHg 70%
    21:00 +21°C° 0 mm 6 m/s 740 mmHg 72%
    22:00 +21°C° 0 mm 6 m/s 740 mmHg 74%
    23:00 +20°C° 0 mm 6 m/s 740 mmHg 76%

    26 Mai, Sâmbătă

    Timp Temperatura Precipitaţii Vânt Presiune Umiditate
    00:00 +20°C° 0 mm 6 m/s 740 mmHg 75%
    01:00 +20°C° 0 mm 6 m/s 739 mmHg 73%
    02:00 +20°C° 0 mm 7 m/s 739 mmHg 72%
    03:00 +20°C° 0,2 mm 6 m/s 739 mmHg 72%
    04:00 +21°C° 0,2 mm 6 m/s 739 mmHg 73%
    05:00 +21°C° 0,2 mm 6 m/s 739 mmHg 73%
    06:00 +22°C° 0 mm 6 m/s 740 mmHg 68%
    07:00 +23°C° 0 mm 6 m/s 740 mmHg 64%
    08:00 +24°C° 0 mm 6 m/s 740 mmHg 59%
    09:00 +26°C° 0,1 mm 6 m/s 740 mmHg 55%
    10:00 +27°C° 0,1 mm 7 m/s 740 mmHg 52%
    11:00 +28°C° 0,1 mm 7 m/s 741 mmHg 49%
    12:00 +28°C° 0 mm 7 m/s 741 mmHg 49%
    13:00 +28°C° 0 mm 6 m/s 741 mmHg 50%
    14:00 +28°C° 0 mm 6 m/s 741 mmHg 50%
    15:00 +27°C° 0 mm 6 m/s 740 mmHg 52%
    16:00 +27°C° 0 mm 6 m/s 740 mmHg 54%
    17:00 +26°C° 0 mm 6 m/s 740 mmHg 56%
    18:00 +24°C° 0,1 mm 6 m/s 741 mmHg 61%
    19:00 +23°C° 0,1 mm 5 m/s 741 mmHg 66%
    20:00 +22°C° 0,1 mm 5 m/s 741 mmHg 71%
    21:00 +22°C° 0 mm 5 m/s 741 mmHg 73%
    22:00 +22°C° 0 mm 5 m/s 741 mmHg 75%
    23:00 +21°C° 0 mm 4 m/s 741 mmHg 77%
    Arată mai mult